SCP
-0 0 0 0 0 0 0 0 0 0 0 0 0 0 0 0 0 0 0 0 0 0 0 0 0 0 0 0 0 0 0 0 0 0 0 0 0 0 0 0 0 0 0 0 0 0 0
0 0 0 0 0 0 0 0 0 0 0 0 0 0 0 0 0 0 0 0 0 0 0 0 0 0 0 0 0 0 0 0 0 0 0 0 0 0 0 0 0 0 0 0 0 0 0
0 0 0 0 0 0 0 0 0 0 0 0 0 0 0 0 0 0 0 0 0 0 0 0 0 0 0 0 0 0 0 0 0 0 0 0 0 0 0 0 0 0 0 0 0 0 0
0 0 0 0 0 0 0 0 0 0 0 0 0 0 0 0 0 0 0 0 0 -0 -0 0 0 0 0 0 0 0 0 0 0 0 0 0 0 0 0 0 0 0 0 0 0 0 0
-0 -0 -0 -0 0 0 0 0 0 0 0 0 0 0 0 0 0 0 0 0 -0 -0 -0 0 0 0 0 0 -0 0 0 0 0 0 0 0 0 0 0 0 0 0 0 0 0 0 0
-0 -0 -0 -0 -0 0 0 0 0 0 0 0 0 0 0 0 0 0 0 0 -0 -0 -0 -0 -0 0 -0 0 0 0 0 0 0 0 0 0 0 0 0 0 0 0 0 0 0 0 0
-0 -0 -0 -0 -0 -0 -0 -0 0 0 0 0 0 0 0 0 0 0 0 0 0 -0 -0 0 0 0 0 0 0 0 0 0 0 0 0 0 0 0 0 0 0 0 0 0 0 0 0
-0 -0 -0 -0 -0 -0 -0 -0 -0 0 0 0 0 0 0 0 0 -0 -0 0 0 0 0 0 0 0 -0 -0 0 0 0 0 0 0 0 0 0 0 0 0 0 0 0 0 0 0 0
-0 -0 -0 -0 -0 -0 -0 0 0 0 0 0 0 0 0 0 0 -0 0 0 0 0 0 -0 -0 -0 0 0 0 0 0 0 0 0 0 0 0 0 0 0 0 0 0 0 0 0 0
-0 -0 -0 -0 -0 -0 -0 -0 0 0 0 0 0 0 -0 -0 -0 0 -0 0 0 0 -0 -0 -0 0 0 0 0 -0 0 0 0 0 0 0 0 0 0 0 0 0 0 0 0 0 0
-0 -0 -0 -0 -0 -0 -0 0 0 0 0 0 0 -0 -0 0 -0 -0 0 0 0 0 -0 0 0 0 0 -0 0 0 -0 0 0 0 0 0 0 0 0 0 0 -0 0 0 0 0 0
-0 -0 -0 -0 -0 -0 0 0 0 0 0 0 0 -0 -0 0 0 0 -0 0 0 -0 0 0 0 0 0 -0 0 0 -0 -0 0 0 0 0 0 0 0 0 0 0 0 0 0 0 0
0 0 0 0 0 0 0 0 0 0 0 0 0 -0 0 0 0 0 -0 0 -0 0 0 0 0 0 0 0 0 0 0 0 0 0 0 0 0 0 0 0 0 0 0 0 0 0 0
0 0 0 0 0 0 0 0 0 0 0 0 0 -0 0 0 0 0 0 0 0 -0 -0 -0 0 0 0 0 -0 0 0 0 0 0 0 0 0 0 0 0 0 0 0 0 0 0 0
0 0 0 0 0 0 0 0 0 0 0 0 0 0 0 0 0 0 0 0 0 -0 0 -0 -0 0 0 0 0 0 0 0 0 0 0 0 0 0 0 0 0 0 0 0 0 0 0
0 0 0 0 0 0 0 0 0 0 0 0 0 0 0 0 0 0 0 -0 -0 -0 0 -0 -0 0 -0 -0 0 0 0 0 0 0 0 0 0 0 0 0 0 0 0 0 0 0 0
0 0 0 0 0 0 0 0 0 0 0 0 0 0 0 0 0 0 0 -0 -0 0 -0 0 -0 -0 -0 -0 0 0 0 0 0 -0 -0 0 0 0 0 0 0 0 0 0 0 0 0
0 0 0 0 0 0 0 0 0 0 0 0 0 0 0 0 0 0 0 -0 -0 0 0 0 0 -0 -0 -0 -0 -0 -0 0 0 -0 0 0 -0 0 0 0 0 0 0 0 0 0 0
0 0 0 0 0 0 0 0 0 0 0 0 0 0 0 0 0 0 0 0 0 -0 -0 -0 -0 -0 -0 -0 -0 -0 0 0 0 0 0 0 -0 0 0 0 0 0 0 0 0 0 0
0 0 0 0 0 0 0 0 0 0 0 0 0 0 0 0 0 0 0 0 0 0 0 -0 -0 0 0 -0 -0 0 0 -0 0 0 0 0 0 0 0 0 0 0 0 0 0 0 0
0 0 0 0 0 0 0 0 0 0 0 0 0 0 0 0 0 0 0 0 0 0 0 -0 -0 -0 -0 -0 -0 0 -0 -0 -0 0 0 0 0 -0 -0 0 0 0 0 0 0 0 0
0 0 0 0 0 0 0 0 0 0 0 0 0 0 0 0 0 0 0 0 0 0 0 -0 -0 -0 -0 -0 -0 -0 -0 -0 -0 0 0 0 0 0 0 0 0 0 0 0 0 0 0
0 0 0 0 0 0 0 0 0 0 0 0 0 0 0 0 0 0 0 0 0 0 0 0 -0 -0 -0 -0 -0 -0 -0 -0 -0 -0 0 0 0 0 0 0 0 0 0 0 0 0 0
0 0 0 0 0 0 0 0 0 0 0 0 0 0 0 0 0 0 0 0 0 0 0 -0 0 0 -0 -0 -0 -0 -0 -0 -0 -0 -0 0 0 0 -0 0 0 0 0 0 0 0 0
0 0 0 0 0 0 0 0 0 0 0 0 0 0 0 0 0 0 0 0 0 0 0 0 0 0 0 -0 -0 -0 0 0 -0 0 0 0 0 0 -0 0 0 0 0 0 0 0 0
0 0 0 0 0 0 0 0 0 0 0 0 0 0 0 0 0 0 0 0 -0 0 0 0 0 0 0 0 0 -0 0 0 0 0 -0 0 0 0 0 0 0 0 0 0 0 0 0
0 0 0 0 0 0 0 0 0 0 0 0 0 0 0 0 0 0 0 0 0 0 0 -0 -0 0 0 0 0 -0 0 0 0 0 0 0 0 0 0 0 0 0 0 0 0 0 0
0 0 0 0 0 0 0 0 0 0 0 0 0 0 0 0 0 0 0 0 0 0 0 -0 -0 -0 0 0 0 0 -0 0 0 0 0 0 0 0 0 0 -0 0 0 0 0 0 0
0 0 0 0 0 0 0 0 0 0 0 0 0 0 0 0 0 -0 0 0 0 0 0 0 0 -0 -0 0 0 0 0 0 0 0 0 0 0 0 0 0 0 0 0 0 0 0 0
Wind_Speed_500mb
27 27 29 30 30 30 29 29 30 31 31 32 31 32 34 35 36 38 40 40 41 41 41 40 36 35 33 27 44 41 35 16 18 24 48 65 72 75 64 61 65 67 63 75 80 80 75
35 35 35 36 35 35 34 35 34 33 32 32 34 35 37 38 39 39 39 39 39 39 40 41 42 38 26 49 25 32 38 36 26 25 32 56 75 78 80 73 66 77 79 81 83 80 77
35 36 36 35 34 34 35 35 36 35 34 34 35 37 39 42 42 41 39 39 38 38 39 40 40 36 41 58 36 33 31 38 43 41 40 40 57 72 73 66 81 83 70 67 68 72 68
33 35 37 39 39 39 38 37 36 34 31 30 31 34 38 41 43 44 45 46 44 40 37 36 38 25 34 33 43 48 46 51 49 50 47 36 35 62 72 59 64 67 62 59 64 64 67
36 36 37 39 39 39 39 41 41 39 38 37 37 40 44 45 45 42 41 42 37 36 31 26 19 26 47 18 32 29 46 49 43 49 48 50 37 49 48 48 44 53 56 73 62 58 56
38 39 40 39 41 42 41 41 42 41 40 40 41 45 48 50 51 52 51 39 36 26 15 9 20 18 44 33 13 13 8 19 37 41 50 47 47 36 39 42 54 63 68 60 67 55 58
42 41 42 43 42 43 42 41 40 42 43 44 46 47 49 52 53 52 53 38 13 17 24 31 31 34 52 21 25 30 24 20 25 39 47 60 32 54 85 74 67 62 53 64 64 57 61
43 44 45 45 45 45 44 42 41 44 45 46 46 49 50 52 54 48 23 27 19 17 29 54 64 72 69 63 61 51 39 37 34 38 43 47 61 88 56 66 64 68 64 68 58 56 46
42 46 47 46 47 48 47 47 47 48 50 51 49 50 51 54 45 19 28 25 15 23 22 60 63 60 50 44 61 57 53 55 46 45 49 58 84 53 64 63 65 66 67 61 63 49 47
43 46 48 47 47 47 47 47 49 51 52 54 53 51 52 54 28 26 20 19 18 24 16 39 24 13 18 20 27 38 48 60 51 58 45 54 64 65 67 70 69 65 61 59 54 44 40
43 45 45 46 47 48 49 50 50 52 53 55 56 55 50 25 28 18 20 20 17 12 12 11 18 14 11 22 7 9 28 38 48 51 44 67 53 67 73 82 64 76 50 53 51 42 45
42 43 44 45 48 50 51 52 53 54 55 58 62 45 24 20 14 22 22 18 12 11 9 8 14 26 30 33 15 18 16 32 27 41 57 62 66 56 75 67 56 61 55 53 43 37 40
41 44 45 46 48 51 54 54 55 57 56 58 55 22 24 17 19 23 14 16 10 12 13 18 25 26 28 45 26 23 20 27 27 31 41 62 61 59 58 55 71 56 53 34 39 35 46
43 45 46 47 48 51 54 56 58 59 57 57 38 19 24 24 25 13 12 7 16 21 22 35 37 39 39 39 32 13 21 32 34 29 36 44 50 67 54 59 67 68 57 33 66 30 38
43 46 47 48 49 51 54 56 60 59 57 58 21 11 7 22 15 8 10 11 12 23 29 30 41 32 35 37 34 28 33 32 10 12 14 29 55 58 67 51 50 77 54 68 48 47 34
43 46 48 49 50 51 53 57 62 60 54 48 18 12 8 17 11 10 7 13 21 27 29 33 39 21 30 38 12 32 13 3 4 9 6 26 21 54 60 64 65 63 58 46 40 55 44
43 45 48 49 50 49 52 59 61 58 52 34 17 9 8 15 14 11 8 15 30 32 31 19 38 39 35 30 35 29 27 12 8 13 15 32 10 29 59 63 64 48 51 58 44 37 32
46 47 48 48 47 48 56 61 60 55 51 33 14 8 10 14 9 10 10 32 39 31 35 31 21 31 31 32 27 29 35 15 13 18 27 29 16 33 31 52 60 62 60 62 36 54 36
48 48 48 45 45 50 57 62 61 51 37 31 21 11 1 8 10 15 31 36 18 26 30 20 20 30 34 36 14 15 3 14 5 15 8 15 22 32 9 35 62 60 66 54 55 36 39
49 48 48 45 45 53 58 62 59 47 28 16 14 9 9 7 15 19 26 29 33 29 25 26 35 22 12 30 21 15 20 5 8 31 20 16 22 40 17 16 38 58 64 58 57 30 35
49 49 49 47 43 51 59 59 55 41 21 14 13 7 10 10 18 21 29 29 29 27 29 46 25 29 32 32 35 10 14 29 6 11 8 7 25 46 32 32 51 57 53 54 59 48 33
49 50 51 49 44 48 57 57 50 37 20 10 11 13 24 40 20 20 22 23 29 35 32 28 31 39 36 35 31 32 29 25 4 9 10 11 20 31 38 30 49 35 60 52 47 52 36
48 49 51 52 49 44 54 55 46 31 21 8 13 12 12 25 21 12 18 23 37 35 24 30 35 37 36 35 44 50 54 48 29 29 23 10 14 19 29 31 49 32 41 45 47 50 41
47 49 51 54 54 44 47 54 46 24 12 11 11 14 11 15 21 18 30 35 30 37 35 51 31 18 27 51 60 56 58 51 42 35 30 23 25 16 18 22 17 22 23 25 39 38 37
48 49 50 54 56 44 44 51 47 23 16 10 23 9 8 14 37 29 29 32 46 40 28 34 25 29 35 34 21 19 20 27 34 33 31 27 13 10 10 24 19 13 13 25 31 32 15
48 49 52 53 56 47 43 50 47 34 17 12 18 22 13 15 10 42 34 29 28 22 26 29 37 31 22 9 15 18 6 8 2 12 22 21 10 5 7 16 7 10 16 11 14 23 21
50 51 52 53 53 54 46 50 50 41 19 17 19 23 16 19 33 28 29 22 27 21 18 35 36 23 4 7 6 9 10 27 9 9 17 14 8 16 17 14 15 25 32 3 22 12 13
51 53 52 51 54 50 52 49 50 48 23 20 20 25 23 20 58 27 23 33 36 27 11 30 26 8 8 7 5 8 8 9 10 3 14 9 7 9 12 9 6 46 9 11 12 16 18
52 51 49 50 54 53 50 50 47 52 33 21 23 25 24 28 48 48 43 33 30 33 31 7 11 16 8 7 6 6 5 6 13 4 11 5 8 10 10 6 17 23 33 32 27 17 22
Wind_Direction_500mb
16 12 11 7 6 6 3 354 350 348 343 339 335 331 326 321 317 312 308 309 310 312 315 312 313 312 317 253 242 287 285 260 229 249 230 222 224 229 233 233 241 243 246 252 260 269 264
20 22 21 20 17 14 8 2 358 352 348 344 341 336 333 331 327 322 316 311 306 303 299 301 305 302 281 265 263 254 251 257 248 243 237 228 230 232 242 241 243 249 257 261 261 261 264
30 24 16 17 14 9 3 357 351 346 345 344 340 337 335 332 329 326 323 317 309 298 291 290 287 285 271 255 264 264 261 251 247 246 246 239 237 240 241 248 248 256 260 262 258 256 254
23 20 15 15 16 11 7 1 356 350 345 341 340 336 334 329 324 324 325 322 313 302 292 280 274 256 259 266 272 267 260 255 251 242 240 240 246 243 243 255 251 251 253 257 250 253 252
27 24 21 17 13 8 5 4 359 353 348 344 341 337 335 332 330 328 322 322 318 303 292 278 258 224 266 273 246 268 248 247 245 243 238 240 244 246 233 240 252 237 242 240 251 248 250
30 26 18 11 5 4 2 360 360 357 353 350 343 338 335 333 332 330 325 327 321 299 321 263 242 241 250 253 257 268 239 241 243 236 228 222 228 236 233 219 228 229 237 243 255 251 245
28 22 15 9 6 5 4 1 359 358 353 348 344 339 337 335 334 331 328 337 288 253 227 255 286 230 286 241 274 264 258 252 247 229 224 206 212 220 221 219 234 242 248 247 250 248 240
23 18 15 14 11 10 9 6 0 355 350 344 338 335 332 333 334 332 1 327 326 306 294 275 269 263 258 265 271 255 252 244 231 231 221 217 218 222 224 231 231 243 250 250 262 262 256
22 20 18 16 15 13 10 5 358 353 349 343 336 332 328 327 332 356 320 313 293 311 277 280 266 259 251 244 248 246 238 233 241 229 229 220 228 228 230 232 235 233 235 243 252 263 265
19 18 15 12 11 7 3 358 356 353 350 344 338 329 325 325 328 314 320 319 320 314 283 268 198 207 181 225 253 235 237 228 237 236 239 235 237 236 226 233 229 236 229 242 254 260 258
16 13 9 6 6 3 1 356 352 350 349 345 340 330 325 328 310 324 315 317 308 287 280 102 121 140 193 228 339 136 224 232 235 237 230 241 228 230 239 227 230 242 236 238 240 247 262
8 5 2 360 0 359 358 354 350 349 349 347 341 340 360 8 323 316 317 295 290 240 262 11 59 344 258 230 241 185 232 212 253 241 253 248 245 240 230 242 230 237 239 242 241 240 245
1 359 356 355 356 355 355 352 350 350 348 347 345 359 17 359 319 314 314 287 257 260 344 38 352 318 326 292 249 245 259 276 241 216 237 244 247 247 241 223 235 222 224 226 229 227 242
1 358 356 354 354 354 352 350 350 350 349 346 348 12 340 341 326 315 303 291 257 357 12 347 337 316 280 282 274 303 262 257 253 257 281 234 227 234 231 229 216 222 213 215 215 218 236
1 358 356 355 355 355 351 349 349 348 350 348 11 353 346 333 353 324 313 264 343 2 342 329 316 307 285 251 268 227 260 260 351 359 293 278 235 228 229 227 237 210 215 217 240 231 245
356 352 350 351 352 353 350 347 347 347 352 350 352 311 326 348 346 315 279 310 327 352 340 317 307 297 320 312 247 253 278 294 258 262 324 287 286 227 229 216 237 237 210 208 222 240 247
0 356 354 353 352 355 354 349 347 347 349 355 348 300 336 346 326 291 311 317 326 333 318 328 313 306 305 299 295 288 280 154 196 289 231 275 268 271 223 212 213 214 217 210 220 230 234
0 357 356 356 358 1 356 351 348 348 346 4 307 317 347 347 321 310 298 322 298 304 311 323 314 308 303 314 301 276 261 8 190 295 293 253 281 267 279 220 215 214 215 200 222 217 234
1 358 358 1 1 0 357 354 351 356 353 351 320 304 342 350 340 329 315 313 320 326 320 320 293 300 316 309 291 283 35 4 331 294 304 358 243 250 279 253 199 224 205 209 216 229 208
360 359 358 357 359 359 360 356 354 359 0 1 324 325 332 310 335 313 326 311 327 321 311 309 303 313 255 302 311 293 339 155 269 259 291 310 267 258 248 232 206 214 206 204 203 213 196
358 357 357 353 355 358 1 359 353 3 16 10 343 289 326 306 322 321 298 283 297 323 330 313 305 307 317 323 312 347 321 313 321 271 262 241 262 241 254 301 305 208 215 203 196 210 216
355 355 355 354 348 351 358 0 355 1 26 346 354 339 323 298 290 305 307 300 324 328 326 310 315 314 320 305 316 318 322 311 232 265 248 248 270 276 226 262 284 260 208 211 204 201 226
351 352 352 353 351 344 351 357 358 357 21 343 323 306 290 284 271 284 302 319 305 313 312 310 311 311 305 310 311 301 290 284 267 263 280 269 286 253 221 234 271 234 202 211 197 194 215
348 350 349 349 350 345 346 350 356 348 356 309 298 318 291 295 311 309 302 303 317 309 296 299 315 303 301 308 301 277 257 250 247 246 247 258 294 290 209 236 226 212 206 228 202 193 203
347 345 347 347 347 346 346 349 348 345 327 303 284 270 285 285 317 294 341 315 309 299 290 308 321 328 315 306 291 285 225 222 225 224 223 239 274 298 167 218 95 163 68 199 215 167 50
345 344 343 344 345 343 343 349 348 341 314 311 282 270 261 296 271 331 316 321 300 331 316 335 332 330 320 307 303 286 313 292 232 307 180 214 213 270 276 244 175 307 24 5 301 118 33
339 341 340 341 340 340 331 336 344 340 310 286 281 277 251 269 285 310 308 305 306 309 294 304 340 322 342 329 302 313 318 345 26 317 180 198 240 250 273 241 116 345 339 307 210 79 32
328 331 336 337 338 332 332 326 330 336 310 277 282 267 254 271 296 291 305 292 292 287 285 307 323 4 318 330 317 339 329 347 301 289 330 192 262 220 256 246 76 342 50 28 34 48 41
323 326 329 336 338 335 330 327 325 328 322 266 277 264 262 258 276 293 285 279 284 281 276 283 286 314 320 315 339 310 306 298 316 42 353 358 349 317 24 56 304 31 54 43 30 33 14
Wind_Speed_850mb
27 27 29 30 30 30 29 29 30 31 31 32 31 32 34 35 36 38 40 40 41 41 41 40 36 35 33 27 44 41 35 16 18 24 48 65 72 75 64 61 65 67 63 75 80 80 75
35 35 35 36 35 35 34 35 34 33 32 32 34 35 37 38 39 39 39 39 39 39 40 41 42 38 26 49 25 32 38 36 26 25 32 56 75 78 80 73 66 77 79 81 83 80 77
35 36 36 35 34 34 35 35 36 35 34 34 35 37 39 42 42 41 39 39 38 38 39 40 40 36 41 58 36 33 31 38 43 41 40 40 57 72 73 66 81 83 70 67 68 72 68
33 35 37 39 39 39 38 37 36 34 31 30 31 34 38 41 43 44 45 46 44 40 37 36 38 25 34 33 43 48 46 51 49 50 47 36 35 62 72 59 64 67 62 59 64 64 67
36 36 37 39 39 39 39 41 41 39 38 37 37 40 44 45 45 42 41 42 37 36 31 26 19 26 47 18 32 29 46 49 43 49 48 50 37 49 48 48 44 53 56 73 62 58 56
38 39 40 39 41 42 41 41 42 41 40 40 41 45 48 50 51 52 51 39 36 26 15 9 20 18 44 33 13 13 8 19 37 41 50 47 47 36 39 42 54 63 68 60 67 55 58
42 41 42 43 42 43 42 41 40 42 43 44 46 47 49 52 53 52 53 38 13 17 24 31 31 34 52 21 25 30 24 20 25 39 47 60 32 54 85 74 67 62 53 64 64 57 61
43 44 45 45 45 45 44 42 41 44 45 46 46 49 50 52 54 48 23 27 19 17 29 54 64 72 69 63 61 51 39 37 34 38 43 47 61 88 56 66 64 68 64 68 58 56 46
42 46 47 46 47 48 47 47 47 48 50 51 49 50 51 54 45 19 28 25 15 23 22 60 63 60 50 44 61 57 53 55 46 45 49 58 84 53 64 63 65 66 67 61 63 49 47
43 46 48 47 47 47 47 47 49 51 52 54 53 51 52 54 28 26 20 19 18 24 16 39 24 13 18 20 27 38 48 60 51 58 45 54 64 65 67 70 69 65 61 59 54 44 40
43 45 45 46 47 48 49 50 50 52 53 55 56 55 50 25 28 18 20 20 17 12 12 11 18 14 11 22 7 9 28 38 48 51 44 67 53 67 73 82 64 76 50 53 51 42 45
42 43 44 45 48 50 51 52 53 54 55 58 62 45 24 20 14 22 22 18 12 11 9 8 14 26 30 33 15 18 16 32 27 41 57 62 66 56 75 67 56 61 55 53 43 37 40
41 44 45 46 48 51 54 54 55 57 56 58 55 22 24 17 19 23 14 16 10 12 13 18 25 26 28 45 26 23 20 27 27 31 41 62 61 59 58 55 71 56 53 34 39 35 46
43 45 46 47 48 51 54 56 58 59 57 57 38 19 24 24 25 13 12 7 16 21 22 35 37 39 39 39 32 13 21 32 34 29 36 44 50 67 54 59 67 68 57 33 66 30 38
43 46 47 48 49 51 54 56 60 59 57 58 21 11 7 22 15 8 10 11 12 23 29 30 41 32 35 37 34 28 33 32 10 12 14 29 55 58 67 51 50 77 54 68 48 47 34
43 46 48 49 50 51 53 57 62 60 54 48 18 12 8 17 11 10 7 13 21 27 29 33 39 21 30 38 12 32 13 3 4 9 6 26 21 54 60 64 65 63 58 46 40 55 44
43 45 48 49 50 49 52 59 61 58 52 34 17 9 8 15 14 11 8 15 30 32 31 19 38 39 35 30 35 29 27 12 8 13 15 32 10 29 59 63 64 48 51 58 44 37 32
46 47 48 48 47 48 56 61 60 55 51 33 14 8 10 14 9 10 10 32 39 31 35 31 21 31 31 32 27 29 35 15 13 18 27 29 16 33 31 52 60 62 60 62 36 54 36
48 48 48 45 45 50 57 62 61 51 37 31 21 11 1 8 10 15 31 36 18 26 30 20 20 30 34 36 14 15 3 14 5 15 8 15 22 32 9 35 62 60 66 54 55 36 39
49 48 48 45 45 53 58 62 59 47 28 16 14 9 9 7 15 19 26 29 33 29 25 26 35 22 12 30 21 15 20 5 8 31 20 16 22 40 17 16 38 58 64 58 57 30 35
49 49 49 47 43 51 59 59 55 41 21 14 13 7 10 10 18 21 29 29 29 27 29 46 25 29 32 32 35 10 14 29 6 11 8 7 25 46 32 32 51 57 53 54 59 48 33
49 50 51 49 44 48 57 57 50 37 20 10 11 13 24 40 20 20 22 23 29 35 32 28 31 39 36 35 31 32 29 25 4 9 10 11 20 31 38 30 49 35 60 52 47 52 36
48 49 51 52 49 44 54 55 46 31 21 8 13 12 12 25 21 12 18 23 37 35 24 30 35 37 36 35 44 50 54 48 29 29 23 10 14 19 29 31 49 32 41 45 47 50 41
47 49 51 54 54 44 47 54 46 24 12 11 11 14 11 15 21 18 30 35 30 37 35 51 31 18 27 51 60 56 58 51 42 35 30 23 25 16 18 22 17 22 23 25 39 38 37
48 49 50 54 56 44 44 51 47 23 16 10 23 9 8 14 37 29 29 32 46 40 28 34 25 29 35 34 21 19 20 27 34 33 31 27 13 10 10 24 19 13 13 25 31 32 15
48 49 52 53 56 47 43 50 47 34 17 12 18 22 13 15 10 42 34 29 28 22 26 29 37 31 22 9 15 18 6 8 2 12 22 21 10 5 7 16 7 10 16 11 14 23 21
50 51 52 53 53 54 46 50 50 41 19 17 19 23 16 19 33 28 29 22 27 21 18 35 36 23 4 7 6 9 10 27 9 9 17 14 8 16 17 14 15 25 32 3 22 12 13
51 53 52 51 54 50 52 49 50 48 23 20 20 25 23 20 58 27 23 33 36 27 11 30 26 8 8 7 5 8 8 9 10 3 14 9 7 9 12 9 6 46 9 11 12 16 18
52 51 49 50 54 53 50 50 47 52 33 21 23 25 24 28 48 48 43 33 30 33 31 7 11 16 8 7 6 6 5 6 13 4 11 5 8 10 10 6 17 23 33 32 27 17 22
Wind_Direction_850mb
16 12 11 7 6 6 3 354 350 348 343 339 335 331 326 321 317 312 308 309 310 312 315 312 313 312 317 253 242 287 285 260 229 249 230 222 224 229 233 233 241 243 246 252 260 269 264
20 22 21 20 17 14 8 2 358 352 348 344 341 336 333 331 327 322 316 311 306 303 299 301 305 302 281 265 263 254 251 257 248 243 237 228 230 232 242 241 243 249 257 261 261 261 264
30 24 16 17 14 9 3 357 351 346 345 344 340 337 335 332 329 326 323 317 309 298 291 290 287 285 271 255 264 264 261 251 247 246 246 239 237 240 241 248 248 256 260 262 258 256 254
23 20 15 15 16 11 7 1 356 350 345 341 340 336 334 329 324 324 325 322 313 302 292 280 274 256 259 266 272 267 260 255 251 242 240 240 246 243 243 255 251 251 253 257 250 253 252
27 24 21 17 13 8 5 4 359 353 348 344 341 337 335 332 330 328 322 322 318 303 292 278 258 224 266 273 246 268 248 247 245 243 238 240 244 246 233 240 252 237 242 240 251 248 250
30 26 18 11 5 4 2 360 360 357 353 350 343 338 335 333 332 330 325 327 321 299 321 263 242 241 250 253 257 268 239 241 243 236 228 222 228 236 233 219 228 229 237 243 255 251 245
28 22 15 9 6 5 4 1 359 358 353 348 344 339 337 335 334 331 328 337 288 253 227 255 286 230 286 241 274 264 258 252 247 229 224 206 212 220 221 219 234 242 248 247 250 248 240
23 18 15 14 11 10 9 6 0 355 350 344 338 335 332 333 334 332 1 327 326 306 294 275 269 263 258 265 271 255 252 244 231 231 221 217 218 222 224 231 231 243 250 250 262 262 256
22 20 18 16 15 13 10 5 358 353 349 343 336 332 328 327 332 356 320 313 293 311 277 280 266 259 251 244 248 246 238 233 241 229 229 220 228 228 230 232 235 233 235 243 252 263 265
19 18 15 12 11 7 3 358 356 353 350 344 338 329 325 325 328 314 320 319 320 314 283 268 198 207 181 225 253 235 237 228 237 236 239 235 237 236 226 233 229 236 229 242 254 260 258
16 13 9 6 6 3 1 356 352 350 349 345 340 330 325 328 310 324 315 317 308 287 280 102 121 140 193 228 339 136 224 232 235 237 230 241 228 230 239 227 230 242 236 238 240 247 262
8 5 2 360 0 359 358 354 350 349 349 347 341 340 360 8 323 316 317 295 290 240 262 11 59 344 258 230 241 185 232 212 253 241 253 248 245 240 230 242 230 237 239 242 241 240 245
1 359 356 355 356 355 355 352 350 350 348 347 345 359 17 359 319 314 314 287 257 260 344 38 352 318 326 292 249 245 259 276 241 216 237 244 247 247 241 223 235 222 224 226 229 227 242
1 358 356 354 354 354 352 350 350 350 349 346 348 12 340 341 326 315 303 291 257 357 12 347 337 316 280 282 274 303 262 257 253 257 281 234 227 234 231 229 216 222 213 215 215 218 236
1 358 356 355 355 355 351 349 349 348 350 348 11 353 346 333 353 324 313 264 343 2 342 329 316 307 285 251 268 227 260 260 351 359 293 278 235 228 229 227 237 210 215 217 240 231 245
356 352 350 351 352 353 350 347 347 347 352 350 352 311 326 348 346 315 279 310 327 352 340 317 307 297 320 312 247 253 278 294 258 262 324 287 286 227 229 216 237 237 210 208 222 240 247
0 356 354 353 352 355 354 349 347 347 349 355 348 300 336 346 326 291 311 317 326 333 318 328 313 306 305 299 295 288 280 154 196 289 231 275 268 271 223 212 213 214 217 210 220 230 234
0 357 356 356 358 1 356 351 348 348 346 4 307 317 347 347 321 310 298 322 298 304 311 323 314 308 303 314 301 276 261 8 190 295 293 253 281 267 279 220 215 214 215 200 222 217 234
1 358 358 1 1 0 357 354 351 356 353 351 320 304 342 350 340 329 315 313 320 326 320 320 293 300 316 309 291 283 35 4 331 294 304 358 243 250 279 253 199 224 205 209 216 229 208
360 359 358 357 359 359 360 356 354 359 0 1 324 325 332 310 335 313 326 311 327 321 311 309 303 313 255 302 311 293 339 155 269 259 291 310 267 258 248 232 206 214 206 204 203 213 196
358 357 357 353 355 358 1 359 353 3 16 10 343 289 326 306 322 321 298 283 297 323 330 313 305 307 317 323 312 347 321 313 321 271 262 241 262 241 254 301 305 208 215 203 196 210 216
355 355 355 354 348 351 358 0 355 1 26 346 354 339 323 298 290 305 307 300 324 328 326 310 315 314 320 305 316 318 322 311 232 265 248 248 270 276 226 262 284 260 208 211 204 201 226
351 352 352 353 351 344 351 357 358 357 21 343 323 306 290 284 271 284 302 319 305 313 312 310 311 311 305 310 311 301 290 284 267 263 280 269 286 253 221 234 271 234 202 211 197 194 215
348 350 349 349 350 345 346 350 356 348 356 309 298 318 291 295 311 309 302 303 317 309 296 299 315 303 301 308 301 277 257 250 247 246 247 258 294 290 209 236 226 212 206 228 202 193 203
347 345 347 347 347 346 346 349 348 345 327 303 284 270 285 285 317 294 341 315 309 299 290 308 321 328 315 306 291 285 225 222 225 224 223 239 274 298 167 218 95 163 68 199 215 167 50
345 344 343 344 345 343 343 349 348 341 314 311 282 270 261 296 271 331 316 321 300 331 316 335 332 330 320 307 303 286 313 292 232 307 180 214 213 270 276 244 175 307 24 5 301 118 33
339 341 340 341 340 340 331 336 344 340 310 286 281 277 251 269 285 310 308 305 306 309 294 304 340 322 342 329 302 313 318 345 26 317 180 198 240 250 273 241 116 345 339 307 210 79 32
328 331 336 337 338 332 332 326 330 336 310 277 282 267 254 271 296 291 305 292 292 287 285 307 323 4 318 330 317 339 329 347 301 289 330 192 262 220 256 246 76 342 50 28 34 48 41
323 326 329 336 338 335 330 327 325 328 322 266 277 264 262 258 276 293 285 279 284 281 276 283 286 314 320 315 339 310 306 298 316 42 353 358 349 317 24 56 304 31 54 43 30 33 14